GW1851 Weather Reports


Display with metric or nautical units.
time (UTC)temp
F
wind
direction
speed
MPH
gust
MPH
rain 1hr
in
rain 24hr
in
rain mn
in
humidity
%
barometer
mb
20260502203030 60 306 1.0 2.0 0.00 0.00 0.00 40 1019.2
20260502202526 60 312 4.0 6.0 0.00 0.00 0.00 33 1019.3
20260502202025 60 76 2.0 3.0 0.00 0.00 0.00 33 1019.3
20260502201520 60 223 2.0 2.0 0.00 0.00 0.00 32 1019.5
20260502201016 60 240 1.0 1.0 0.00 0.00 0.00 38 1019.6
20260502200513 58 151 1.0 1.0 0.00 0.00 0.00 34 1019.8
20260502200011 60 233 2.0 2.0 0.00 0.00 0.00 35 1020.0
20260502195508 59 237 0.0 1.0 0.00 0.00 0.00 33 1019.6
20260502195003 60 223 3.0 5.0 0.00 0.00 0.00 33 1019.9
20260502194501 59 232 0.0 1.0 0.00 0.00 0.00 33 1019.8
20260502193956 58 308 3.0 3.0 0.00 0.00 0.00 38 1019.9
20260502193454 57 300 1.0 2.0 0.00 0.00 0.00 39 1019.8
20260502192949 57 148 1.0 2.0 0.00 0.00 0.00 37 1020.0
20260502192447 58 205 1.0 1.0 0.00 0.00 0.00 41 1020.1
20260502191943 58 206 1.0 1.0 0.00 0.00 0.00 36 1020.1
20260502191441 59 247 3.0 5.0 0.00 0.00 0.00 41 1019.9
20260502190939 59 224 0.0 1.0 0.00 0.00 0.00 40 1020.0
20260502190436 59 45 2.0 3.0 0.00 0.00 0.00 38 1020.0
20260502185932 60 346 2.0 5.0 0.00 0.00 0.00 38 1020.1
20260502185427 59 198 1.0 2.0 0.00 0.00 0.00 38 1020.0
20260502184925 58 218 1.0 2.0 0.00 0.00 0.00 38 1020.3
20260502184420 57 215 2.0 3.0 0.00 0.00 0.00 38 1020.6
20260502183917 55 226 1.0 1.0 0.00 0.00 0.00 43 1020.5
20260502183413 56 224 1.0 1.0 0.00 0.00 0.00 42 1020.5
20260502182909 55 273 1.0 1.0 0.00 0.00 0.00 45 1020.4
20260502182404 55 166 3.0 3.0 0.00 0.00 0.00 42 1020.3
20260502181901 55 242 1.0 2.0 0.00 0.00 0.00 43 1020.4
20260502181359 57 274 1.0 2.0 0.00 0.00 0.00 43 1020.5
20260502180857 58 53 1.0 3.0 0.00 0.00 0.00 43 1020.4
20260502180354 59 204 2.0 2.0 0.00 0.00 0.00 43 1020.5
20260502170312 55 224 0.0 1.0 0.00 0.00 0.00 44 1020.9
20260502164300 55 223 2.0 2.0 0.00 0.00 0.00 54 1021.1
20260502163756 56 193 1.0 1.0 0.00 0.00 0.00 49 1021.4
20260502163252 55 314 3.0 3.0 0.00 0.00 0.00 50 1021.5
20260502162749 56 231 1.0 1.0 0.00 0.00 0.00 53 1021.3
20260502162246 55 195 0.0 0.0 0.00 0.00 0.00 53 1021.1
20260502161743 55 226 0.0 0.0 0.00 0.00 0.00 51 1021.3
20260502161239 55 291 2.0 2.0 0.00 0.00 0.00 52 1021.2
20260502160737 56 241 1.0 1.0 0.00 0.00 0.00 53 1021.3
20260502160236 55 265 1.0 2.0 0.00 0.00 0.00 53 1021.4
20260502152155 52 216 1.0 1.0 0.00 0.00 0.00 62 1021.5
20260502151652 52 189 0.0 0.0 0.00 0.00 0.00 64 1021.5
20260502151149 53 164 1.0 1.0 0.00 0.00 0.00 62 1021.5
20260502150647 52 175 1.0 2.0 0.00 0.00 0.00 66 1021.5
20260502150143 53 199 0.0 1.0 0.00 0.00 0.00 63 1021.2
20260502140106 50 226 1.0 2.0 0.00 0.00 0.00 66 1021.3
20260502130532 46 220 1.0 1.0 0.00 0.00 0.00 77 1020.9
20260502123515 42 214 0.0 0.0 0.00 0.00 0.00 85 1020.5
20260502123011 42 220 0.0 0.0 0.00 0.00 0.00 87 1020.7
20260502122508 42 222 0.0 0.0 0.00 0.00 0.00 88 1020.8
20260502122005 42 221 0.0 0.0 0.00 0.00 0.00 87 1020.4
20260502121503 42 208 1.0 1.0 0.00 0.00 0.00 87 1020.5
20260502121000 41 209 0.0 0.0 0.00 0.00 0.00 88 1020.3
20260502120456 41 111 2.0 2.0 0.00 0.00 0.00 89 1020.3
20260502115450 40 228 0.0 0.0 0.00 0.00 0.00 89 1020.3
20260502114946 40 221 0.0 0.0 0.00 0.00 0.00 90 1020.2
20260502114443 40 225 0.0 0.0 0.00 0.00 0.00 90 1020.3
20260502113941 40 234 0.0 0.0 0.00 0.00 0.00 91 1020.2
20260502113438 40 215 0.0 0.0 0.00 0.00 0.00 92 1020.0
20260502112937 40 229 0.0 0.0 0.00 0.00 0.00 92 1020.1
20260502112434 40 216 0.0 0.0 0.00 0.00 0.00 91 1019.9
20260502111931 40 227 0.0 0.0 0.00 0.00 0.00 90 1020.1
20260502111428 40 232 0.0 0.0 0.00 0.00 0.00 90 1019.9
20260502110926 40 215 0.0 0.0 0.00 0.00 0.00 88 1020.0
20260502110423 41 208 0.0 0.0 0.00 0.00 0.00 88 1020.1
20260502105920 41 218 0.0 0.0 0.00 0.00 0.00 87 1020.1
20260502105417 41 209 0.0 0.0 0.00 0.00 0.00 86 1020.2
20260502104916 41 211 0.0 0.0 0.00 0.00 0.00 85 1020.0
20260502104412 41 174 0.0 0.0 0.00 0.00 0.00 86 1020.0
20260502103909 42 206 0.0 0.0 0.00 0.00 0.00 87 1019.9
20260502103408 42 221 0.0 0.0 0.00 0.00 0.00 88 1020.0
20260502102904 42 205 0.0 0.0 0.00 0.00 0.00 90 1020.1
20260502102400 42 247 0.0 0.0 0.00 0.00 0.00 90 1019.9
20260502101858 42 220 0.0 0.0 0.00 0.00 0.00 89 1019.7
20260502101356 42 224 0.0 0.0 0.00 0.00 0.00 90 1019.8
20260502100854 42 225 0.0 0.0 0.00 0.00 0.00 90 1019.6
20260502100353 42 228 0.0 0.0 0.00 0.00 0.00 89 1019.5
20260502091327 43 231 0.0 0.0 0.00 0.00 0.00 90 1019.4
20260502090825 42 208 0.0 0.0 0.00 0.00 0.00 90 1019.1
20260502090321 42 209 0.0 0.0 0.00 0.00 0.00 93 1019.5
20260502071216 39 230 0.0 0.0 0.00 0.00 0.00 99 1018.9
20260502070715 39 230 0.0 0.0 0.00 0.00 0.00 99 1018.9
20260502070212 39 230 0.0 0.0 0.00 0.00 0.00 99 1018.9
20260502065710 39 231 0.0 0.0 0.00 0.00 0.00 99 1018.6
20260502065208 39 230 0.0 0.0 0.00 0.00 0.00 99 1018.9
20260502064706 39 230 0.0 0.0 0.00 0.00 0.00 99 1019.0
20260502064203 39 230 0.0 0.0 0.00 0.00 0.00 99 1018.9
20260502063701 40 230 0.0 0.0 0.00 0.00 0.00 99 1018.9
20260502063158 39 230 0.0 0.0 0.00 0.00 0.00 99 1018.6
20260502062655 39 230 0.0 0.0 0.00 0.00 0.00 99 1018.7
20260502062153 39 229 0.0 0.0 0.00 0.00 0.00 99 1018.8
20260502061651 39 229 0.0 0.0 0.00 0.00 0.00 99 1019.0
20260502061148 39 229 0.0 0.0 0.00 0.00 0.00 99 1019.0
20260502060648 39 229 0.0 0.0 0.00 0.00 0.00 99 1019.0
20260502060145 39 229 0.0 0.0 0.00 0.00 0.00 99 1019.0
20260502055643 39 229 0.0 0.0 0.00 0.00 0.00 99 1019.0
20260502055141 39 229 0.0 0.0 0.00 0.00 0.00 99 1018.9
20260502054640 39 229 0.0 0.0 0.00 0.00 0.00 99 1018.8
20260502054136 39 229 0.0 0.0 0.00 0.00 0.00 99 1018.9
20260502053634 39 228 0.0 0.0 0.00 0.00 0.00 99 1018.9
20260502053131 39 228 0.0 0.0 0.00 0.00 0.00 99 1018.9
20260502052629 40 228 0.0 0.0 0.00 0.00 0.00 99 1019.0
20260502052127 40 228 0.0 0.0 0.00 0.00 0.00 99 1019.0
20260502051625 40 228 0.0 0.0 0.00 0.00 0.00 99 1018.9
20260502051123 40 227 0.0 0.0 0.00 0.00 0.00 99 1018.9
20260502050619 40 227 0.0 0.0 0.00 0.00 0.00 99 1018.9
20260502050115 40 227 0.0 0.0 0.00 0.00 0.00 99 1018.9
20260502045612 40 227 0.0 0.0 0.00 0.00 0.00 98 1018.9
20260502045109 41 227 0.0 0.0 0.00 0.00 0.00 98 1018.9
20260502044605 41 227 0.0 0.0 0.00 0.00 0.00 98 1018.9
20260502044102 41 227 0.0 0.0 0.00 0.00 0.00 98 1018.8
20260502043600 41 227 0.0 0.0 0.00 0.00 0.00 98 1018.8
20260502043057 41 227 0.0 0.0 0.00 0.00 0.00 98 1018.5
20260502042551 41 227 0.0 0.0 0.00 0.00 0.00 98 1018.9
20260502042049 41 227 0.0 0.0 0.00 0.00 0.00 98 1018.7
20260502041546 41 227 0.0 0.0 0.00 0.00 0.00 98 1018.8
20260502041043 41 227 0.0 0.0 0.00 0.00 0.00 97 1018.6
20260502040540 41 227 0.0 0.0 0.00 0.00 0.00 97 1018.8
20260502040037 41 227 0.0 0.0 0.00 0.00 0.00 97 1018.8
20260502035532 41 227 0.0 0.0 0.00 0.00 0.00 97 1018.9
20260502035031 41 228 0.0 0.0 0.00 0.00 0.00 97 1019.0
20260502034528 41 227 0.0 0.0 0.00 0.00 0.00 97 1018.9
20260502034027 42 227 0.0 0.0 0.00 0.00 0.00 96 1018.7
20260502033525 42 238 0.0 0.0 0.00 0.00 0.00 96 1018.9
20260502033022 41 226 0.0 0.0 0.00 0.00 0.00 96 1018.9
20260502032517 42 227 0.0 0.0 0.00 0.00 0.00 95 1018.7
20260502032015 42 231 0.0 0.0 0.00 0.00 0.00 95 1018.6
20260502031512 42 229 0.0 0.0 0.00 0.00 0.00 94 1018.7
20260502031010 42 229 0.0 0.0 0.00 0.00 0.00 94 1018.7
20260502030508 43 229 0.0 0.0 0.00 0.00 0.00 94 1018.5
20260502030006 43 229 0.0 0.0 0.00 0.00 0.00 94 1018.7
20260502025503 43 230 0.0 0.0 0.00 0.00 0.00 94 1018.6
20260502025001 43 230 0.0 0.0 0.00 0.00 0.00 93 1018.6
20260502024458 43 230 0.0 0.0 0.00 0.00 0.00 93 1018.4
20260502023956 43 230 0.0 0.0 0.00 0.00 0.00 92 1018.3
20260502023453 43 254 0.0 0.0 0.00 0.00 0.00 92 1018.3
20260502022951 43 230 0.0 0.0 0.00 0.00 0.00 91 1018.5
20260502022447 44 230 0.0 0.0 0.00 0.00 0.00 91 1018.5
20260502021944 44 230 0.0 0.0 0.00 0.00 0.00 91 1018.4
20260502021442 44 230 0.0 0.0 0.00 0.00 0.00 90 1018.2
20260502020939 45 231 0.0 0.0 0.00 0.00 0.00 89 1018.1
20260502020437 45 230 0.0 0.0 0.00 0.00 0.00 88 1018.1
20260502015933 46 230 0.0 0.0 0.00 0.00 0.00 89 1017.9
20260502015431 45 230 0.0 0.0 0.00 0.00 0.00 86 1017.7
20260502014927 46 230 0.0 0.0 0.00 0.00 0.00 87 1017.8
20260502014424 46 230 0.0 0.0 0.00 0.00 0.00 87 1017.7
20260502013920 46 230 0.0 0.0 0.00 0.00 0.00 87 1017.9
20260502013416 46 230 0.0 0.0 0.00 0.00 0.00 87 1018.0
20260502012913 47 230 0.0 0.0 0.00 0.00 0.00 86 1017.8
20260502012411 48 231 0.0 0.0 0.00 0.00 0.00 84 1017.7
20260502011908 48 230 0.0 0.0 0.00 0.00 0.00 79 1017.6
20260502011404 48 230 0.0 0.0 0.00 0.00 0.00 80 1017.5
20260502010901 49 231 0.0 0.0 0.00 0.00 0.00 78 1017.1
20260502010358 49 231 0.0 0.0 0.00 0.00 0.00 79 1017.2
20260502005855 49 223 0.0 0.0 0.00 0.00 0.00 76 1017.0
20260502005352 50 223 0.0 0.0 0.00 0.00 0.00 73 1017.2
20260502004850 50 222 0.0 0.0 0.00 0.00 0.00 76 1017.2
20260502004345 50 222 0.0 0.0 0.00 0.00 0.00 76 1017.1
20260502003843 50 225 0.0 0.0 0.00 0.00 0.00 78 1017.3
20260502003340 51 207 0.0 0.0 0.00 0.00 0.00 75 1017.2
20260502002836 51 207 0.0 0.0 0.00 0.00 0.00 76 1016.9
20260502002334 51 207 0.0 0.0 0.00 0.00 0.00 74 1016.9
20260502001831 51 207 0.0 0.0 0.00 0.00 0.00 78 1016.8
20260502001329 51 206 0.0 0.0 0.00 0.00 0.00 79 1017.1
20260502000826 51 203 0.0 0.0 0.00 0.00 0.00 78 1016.8
20260502000325 51 226 0.0 0.0 0.00 0.00 0.00 76 1016.7
20260501235820 51 226 0.0 0.0 0.00 0.00 0.00 74 1016.7
20260501235316 51 226 0.0 0.0 0.00 0.00 0.00 77 1016.7
20260501234811 51 211 0.0 0.0 0.00 0.00 0.00 76 1016.7
20260501234309 52 215 0.0 0.0 0.00 0.00 0.00 73 1017.0
20260501233807 52 216 0.0 1.0 0.00 0.00 0.00 72 1017.2
20260501233304 53 223 0.0 0.0 0.00 0.00 0.00 67 1017.2
20260501232759 53 228 0.0 0.0 0.00 0.00 0.00 67 1017.0
20260501232257 53 229 0.0 0.0 0.00 0.00 0.00 64 1017.1
20260501231754 53 232 1.0 1.0 0.00 0.00 0.00 62 1017.0
20260501231253 53 232 1.0 1.0 0.00 0.00 0.00 61 1017.2
20260501230750 54 243 2.0 2.0 0.00 0.00 0.00 61 1017.0
20260501230249 54 238 1.0 1.0 0.00 0.00 0.00 59 1016.8
20260501225746 54 238 1.0 1.0 0.00 0.00 0.00 57 1017.1
20260501225243 55 161 0.0 1.0 0.00 0.00 0.00 62 1016.9
20260501224739 55 251 1.0 1.0 0.00 0.00 0.00 57 1017.1
20260501224237 55 248 2.0 2.0 0.00 0.00 0.00 56 1017.2
20260501223733 55 230 1.0 1.0 0.00 0.00 0.00 55 1017.0
20260501223229 55 314 1.0 1.0 0.00 0.00 0.00 55 1017.1
20260501222725 55 248 2.0 2.0 0.00 0.00 0.00 55 1017.1
20260501222223 56 248 1.0 1.0 0.00 0.00 0.00 54 1016.8
20260501221720 56 317 4.0 7.0 0.00 0.00 0.00 54 1017.1
20260501221217 55 259 2.0 2.0 0.00 0.00 0.00 57 1017.0
20260501220714 55 267 2.0 3.0 0.00 0.00 0.00 57 1017.1
20260501220211 55 237 4.0 5.0 0.00 0.00 0.00 54 1016.9
20260501215709 55 210 3.0 3.0 0.00 0.00 0.00 57 1016.9
20260501215203 55 256 4.0 5.0 0.00 0.00 0.00 52 1017.0
20260501214658 56 251 4.0 5.0 0.00 0.00 0.00 54 1017.0
20260501214155 56 227 0.0 0.0 0.00 0.00 0.00 57 1017.0
20260501213651 56 297 3.0 3.0 0.00 0.00 0.00 52 1016.9
20260501213147 56 243 1.0 2.0 0.00 0.00 0.00 54 1017.0
20260501212644 56 233 1.0 1.0 0.00 0.00 0.00 51 1016.9
20260501212141 56 254 1.0 1.0 0.00 0.00 0.00 54 1016.9
20260501211637 56 343 3.0 3.0 0.00 0.00 0.00 53 1017.0
20260501211135 56 214 1.0 2.0 0.00 0.00 0.00 52 1017.2
20260501210631 56 223 2.0 2.0 0.00 0.00 0.00 54 1017.3
20260501210128 56 212 0.0 0.0 0.00 0.00 0.00 55 1017.4
20260501205625 56 232 3.0 3.0 0.00 0.00 0.00 53 1017.2
20260501205123 57 236 2.0 2.0 0.00 0.00 0.00 53 1017.5
20260501204619 56 219 1.0 2.0 0.00 0.00 0.00 53 1017.2
20260501204115 56 262 1.0 2.0 0.00 0.00 0.00 50 1017.2
20260501203612 56 222 0.0 1.0 0.00 0.00 0.00 54 1017.3